Location: São Paulo
(23.5507°S, 46.6334°W)
Time: 10:42:24
(UTC-03:00)

Explorer 7 - Pass Details

Date: 17 February 2026
Orbit: 430 x 541 km, 50.2° (Epoch: 11 March)

Event Time Altitude Azimuth Distance (km) Brightness Sun altitude
Rises 11:52:59 0° 247° (WSW) 2,452 10.0 76.6°
Reaches altitude 10° 11:56:03 10° 276° (W) 1,553 9.2 76.9°
Maximum altitude 11:57:45 13° 305° (NW) 1,363 9.1 77.1°
Drops below altitude 10° 11:59:26 10° 335° (NNW) 1,530 9.4 77.3°
Sets 12:02:24 0° 3° (N) 2,380 10.2 77.5°
